Home > Weather > Burbank > Past weeks

Flag for U.S.A. Weather for the Past 2 Weeks in Burbank, California, U.S.A.

Now
54 °F

Sunny.


Feels Like: 54 °F
Forecast: 57 / 87 °F
Wind: No wind

Location: Bob Hope Airport

Current Time: Feb 10, 2016 at 7:42:43 AM

Latest Report: Feb 10, 2016 at 6:53 AM


Visibility: 10 mi

Pressure: 30.11 "Hg

Humidity: 37%

Dew point: 28 °F

Location of BurbankLocation

Historic Weather in Burbank — Graph

°F

Burbank Temperature Yesterday

Maximum temperature yesterday: 87 °F (at 2:53 PM)
Minimum temperature yesterday: 54 °F (at 3:53 AM)
Average temperature yesterday: 70 °F

High & Low Weather Summary for the Past Weeks

 TemperatureHumidityPressure
High87 °F (Feb 9, 2:53 PM)94% (Jan 31, 7:59 AM)30.34 "Hg (Jan 31, 7:59 AM)
Low39 °F (Feb 2, 5:53 AM)7% (Feb 7, 2:53 PM)29.54 "Hg (Jan 31, 1:53 PM)
Average58 °F39%30.11 "Hg
* Reported Jan 26 5:53 AM — Feb 10 5:53 AM, Burbank, Weather by CustomWeather, © 2016

Note: Actual official high and low records may vary slightly from our data, if they occured in-between our weather recording intervals... More about our weather records

Advertising

Burbank Weather History for the Previous 24 Hours

 ConditionsComfort  
Time TempWeatherWind HumidityBarometerVisibility
5:53 AM
Wed, Feb 10
55 °FClear.No wind34%30.10 "Hg10 mi
4:53 AM59 °FClear.No wind27%30.09 "Hg10 mi
3:53 AM61 °FClear.No wind24%30.09 "Hg10 mi
2:53 AM62 °FClear.No wind24%30.09 "Hg10 mi
1:53 AM61 °FClear.No wind31%30.09 "Hg10 mi
12:53 AM67 °FClear.5 mph19%30.09 "Hg10 mi
11:53 PM
Tue, Feb 9
66 °FClear.6 mph21%30.09 "Hg10 mi
10:53 PM65 °FClear.3 mph25%30.09 "Hg10 mi
9:53 PM66 °FClear.3 mph24%30.08 "Hg10 mi
8:53 PM70 °FClear.7 mph20%30.08 "Hg10 mi
7:53 PM71 °FClear.9 mph21%30.08 "Hg10 mi
6:53 PM76 °FClear.No wind16%30.06 "Hg10 mi
5:53 PM80 °FClear.8 mph14%30.05 "Hg10 mi
4:53 PM86 °FSunny.7 mph12%30.04 "Hg10 mi
3:53 PM87 °FSunny.8 mph10%30.04 "Hg10 mi
2:53 PM87 °FSunny.6 mph9%30.03 "Hg10 mi
1:53 PM86 °FSunny.No wind9%30.03 "Hg10 mi
12:53 PM85 °FSunny.6 mph9%30.06 "Hg10 mi
11:53 AM84 °FSunny.No wind10%30.11 "Hg10 mi
10:53 AM81 °FSunny.No wind16%30.13 "Hg10 mi
9:53 AM73 °FSunny.3 mph24%30.15 "Hg10 mi
8:53 AM68 °FSunny.No wind27%30.15 "Hg10 mi
7:53 AM59 °FSunny.No wind33%30.14 "Hg10 mi
Weather by CustomWeather, © 2016

See weather overviewHow to use our weather pages